Weather History for KORB - April, 2014

Change the Weather History Date:

Saturday, April 12, 2014

  Actual Average Record
Temperature  
Mean Temperature 35 °F -  
Max Temperature 44 °F 47 °F 73 °F (2015)
Min Temperature 26 °F 25 °F 12 °F (1997)
Degree Days  
Heating Degree Days 30    
Moisture  
Dew Point 23 °F    
Average Humidity 62    
Maximum Humidity 87    
Minimum Humidity 39    
Precipitation  
Precipitation 0.00 in - - ()
Sea Level Pressure  
Sea Level Pressure 29.88 in    
Wind  
Wind Speed 3 mph (ESE)    
Max Wind Speed 13 mph    
Max Gust Speed 16 mph    
Visibility 10 miles    
Events      
Averages and records for this station are not official NWS values.
T = Trace of Precipitation, MM = Missing Value Source: NWS Daily Summary

Daily Weather History Graph

Daily Weather History Graph

Search for Another Location

Airport or City:

Trip Planner

Search our weather history database for the weather conditions in past years. The results will help you decide how hot, cold, wet, or windy it might be!

Date:

Astronomy

Apr. 12, 2014 Rise Set
Actual Time 6:27 AM CDT 7:57 PM CDT
Civil Twilight 5:55 AM CDT 8:29 PM CDT
Nautical Twilight 5:16 AM CDT 9:09 PM CDT
Astronomical Twilight 4:33 AM CDT 9:52 PM CDT
Moon 5:26 PM CDT (4/12) 5:06 AM CDT (4/12)
Length of Visible Light 14h 34m
Length of Day
13h 29m
Waxing Gibbous, 93% of the Moon is Illuminated
Apr 12
Waxing Gibbous
Apr 15
Full
Apr 22
Last Quarter
Apr 29
New
May 6
First Quarter

Hourly Weather History & Observations

Time (CDT) Temp. Windchill Dew Point Humidity Pressure Visibility Wind Dir Wind Speed Gust Speed Precip Events Conditions
12:13 AM 30.2 °F - 15.8 °F 55% 29.97 in 10.0 mi Calm Calm - N/A   Scattered Clouds
12:34 AM 28.4 °F - 15.8 °F 59% 29.96 in 10.0 mi Calm Calm - N/A   Scattered Clouds
12:53 AM 30.2 °F - 15.8 °F 55% 29.95 in 10.0 mi Calm Calm - N/A   Clear
1:13 AM 28.4 °F - 17.6 °F 64% 29.95 in 10.0 mi Calm Calm - N/A   Clear
1:34 AM 28.4 °F - 17.6 °F 64% 29.98 in 10.0 mi Calm Calm - N/A   Clear
1:53 AM 28.4 °F - 17.6 °F 64% 29.98 in 10.0 mi Calm Calm - N/A   Scattered Clouds
2:13 AM 30.2 °F - 15.8 °F 55% 29.97 in 10.0 mi Calm Calm - N/A   Mostly Cloudy
2:34 AM 30.2 °F - 15.8 °F 55% 29.97 in 10.0 mi Calm Calm - N/A   Overcast
2:53 AM 30.2 °F - 15.8 °F 55% 29.96 in 10.0 mi Calm Calm - N/A   Overcast
3:13 AM 30.2 °F - 15.8 °F 55% 29.95 in 10.0 mi Calm Calm - N/A   Scattered Clouds
3:34 AM 30.2 °F - 15.8 °F 55% 29.95 in 10.0 mi Calm Calm - N/A   Scattered Clouds
3:53 AM 30.2 °F - 15.8 °F 55% 29.94 in 10.0 mi Calm Calm - N/A   Clear
4:13 AM 26.6 °F - 17.6 °F 69% 29.95 in 10.0 mi Calm Calm - N/A   Clear
4:34 AM 30.2 °F 25.4 °F 15.8 °F 55% 29.94 in 10.0 mi East 4.6 mph - N/A   Clear
4:54 AM 30.2 °F 26.7 °F 15.8 °F 55% 29.94 in 10.0 mi East 3.5 mph - N/A   Scattered Clouds
5:13 AM 30.2 °F 26.7 °F 15.8 °F 55% 29.94 in 10.0 mi ESE 3.5 mph - N/A   Mostly Cloudy
5:34 AM 30.2 °F - 15.8 °F 55% 29.95 in 10.0 mi Calm Calm - N/A   Overcast
5:53 AM 30.2 °F 26.7 °F 15.8 °F 55% 29.95 in 10.0 mi ESE 3.5 mph - N/A   Overcast
6:13 AM 32.0 °F 28.7 °F 17.6 °F 55% 29.95 in 10.0 mi SE 3.5 mph - N/A   Overcast
6:33 AM 32.0 °F 28.7 °F 17.6 °F 55% 29.94 in 10.0 mi East 3.5 mph - N/A   Scattered Clouds
6:54 AM 32.0 °F 28.7 °F 17.6 °F 55% 29.94 in 10.0 mi ESE 3.5 mph - N/A   Clear
7:14 AM 32.0 °F - 19.4 °F 60% 29.93 in 10.0 mi Calm Calm - N/A   Scattered Clouds
7:33 AM 32.0 °F 28.7 °F 19.4 °F 60% 29.92 in 10.0 mi East 3.5 mph - N/A   Scattered Clouds
7:53 AM 33.8 °F 30.8 °F 19.4 °F 56% 29.92 in 10.0 mi ESE 3.5 mph - N/A   Clear
8:13 AM 33.8 °F 29.6 °F 19.4 °F 56% 29.92 in 10.0 mi ESE 4.6 mph - N/A   Clear
8:34 AM 35.6 °F 30.7 °F 21.2 °F 56% 29.92 in 10.0 mi ESE 5.8 mph - N/A   Clear
8:53 AM 37.4 °F 32.1 °F 19.4 °F 48% 29.92 in 10.0 mi ESE 6.9 mph - N/A   Scattered Clouds
9:13 AM 37.4 °F 33.8 °F 19.4 °F 48% 29.90 in 10.0 mi SE 4.6 mph - N/A   Scattered Clouds
9:34 AM 39.2 °F 33.6 °F 19.4 °F 45% 29.90 in 10.0 mi SE 8.1 mph - N/A   Scattered Clouds
9:53 AM 39.2 °F 34.2 °F 19.4 °F 45% 29.90 in 10.0 mi SE 6.9 mph - N/A   Overcast
10:14 AM 39.2 °F 33.6 °F 19.4 °F 45% 29.89 in 10.0 mi ESE 8.1 mph - N/A   Overcast
10:34 AM 39.2 °F 34.2 °F 19.4 °F 45% 29.89 in 10.0 mi SE 6.9 mph - N/A   Overcast
10:54 AM 41.0 °F 35.2 °F 19.4 °F 42% 29.89 in 10.0 mi SE 9.2 mph - N/A   Overcast
11:13 AM 42.8 °F 37.5 °F 19.4 °F 39% 29.88 in 10.0 mi SE 9.2 mph - N/A   Overcast
11:33 AM 44.6 °F 39.7 °F 21.2 °F 39% 29.88 in 10.0 mi ESE 9.2 mph - N/A   Mostly Cloudy
11:53 AM 42.8 °F 37.0 °F 21.2 °F 42% 29.88 in 10.0 mi ESE 10.4 mph 16.1 mph N/A   Overcast
12:14 PM 42.8 °F 38.0 °F 23.0 °F 46% 29.87 in 10.0 mi ESE 8.1 mph - N/A   Overcast
12:33 PM 42.8 °F 38.0 °F 24.8 °F 49% 29.86 in 10.0 mi ESE 8.1 mph - N/A   Overcast
12:54 PM 41.0 °F 35.8 °F 24.8 °F 53% 29.86 in 10.0 mi ESE 8.1 mph - N/A   Overcast
1:14 PM 41.0 °F 35.8 °F 24.8 °F 53% 29.85 in 10.0 mi SE 8.1 mph 16.1 mph N/A   Overcast
1:34 PM 39.2 °F 33.6 °F 24.8 °F 56% 29.85 in 10.0 mi SE 8.1 mph - N/A   Overcast
1:54 PM 39.2 °F 34.2 °F 24.8 °F 56% 29.85 in 10.0 mi ESE 6.9 mph - N/A   Overcast
2:14 PM 39.2 °F 35.0 °F 24.8 °F 56% 29.85 in 10.0 mi SE 5.8 mph - N/A   Overcast
2:34 PM 39.2 °F 33.6 °F 26.6 °F 61% 29.85 in 10.0 mi ESE 8.1 mph - N/A   Overcast
2:53 PM 39.2 °F 35.0 °F 26.6 °F 61% 29.84 in 10.0 mi ESE 5.8 mph - N/A   Overcast
3:14 PM 39.2 °F 34.2 °F 26.6 °F 61% 29.83 in 10.0 mi ESE 6.9 mph - N/A   Overcast
3:34 PM 39.2 °F 34.2 °F 26.6 °F 61% 29.82 in 10.0 mi SE 6.9 mph - N/A   Overcast
3:54 PM 39.2 °F 35.9 °F 28.4 °F 65% 29.82 in 10.0 mi ESE 4.6 mph - N/A   Overcast
4:13 PM 41.0 °F 36.4 °F 28.4 °F 61% 29.81 in 10.0 mi ESE 6.9 mph - N/A   Overcast
4:34 PM 41.0 °F 33.9 °F 28.4 °F 61% 29.81 in 10.0 mi SE 12.7 mph - N/A   Overcast
4:53 PM 39.2 °F 33.6 °F 28.4 °F 65% 29.81 in 10.0 mi ESE 8.1 mph - N/A   Overcast
5:14 PM 39.2 °F 35.0 °F 28.4 °F 65% 29.81 in 10.0 mi ESE 5.8 mph - N/A   Overcast
5:34 PM 39.2 °F 34.2 °F 28.4 °F 65% 29.81 in 10.0 mi ESE 6.9 mph - N/A   Overcast
5:53 PM 37.4 °F 32.1 °F 28.4 °F 70% 29.80 in 10.0 mi ESE 6.9 mph - N/A   Overcast
6:13 PM 37.4 °F 32.8 °F 28.4 °F 70% 29.80 in 10.0 mi SE 5.8 mph - N/A   Overcast
6:33 PM 37.4 °F 32.1 °F 28.4 °F 70% 29.80 in 10.0 mi ESE 6.9 mph - N/A   Overcast
6:54 PM 37.4 °F 32.8 °F 28.4 °F 70% 29.80 in 10.0 mi ESE 5.8 mph - N/A   Overcast
7:13 PM 35.6 °F 32.8 °F 28.4 °F 75% 29.82 in 10.0 mi ESE 3.5 mph - N/A   Overcast
7:33 PM 35.6 °F 32.8 °F 28.4 °F 75% 29.82 in 10.0 mi ESE 3.5 mph - N/A   Overcast
7:53 PM 35.6 °F 31.7 °F 30.2 °F 81% 29.81 in 10.0 mi SE 4.6 mph - N/A   Overcast
8:13 PM 35.6 °F 30.7 °F 30.2 °F 81% 29.82 in 10.0 mi ESE 5.8 mph - N/A   Overcast
8:34 PM 35.6 °F 32.8 °F 30.2 °F 81% 29.82 in 10.0 mi SE 3.5 mph - N/A   Overcast
8:53 PM 35.6 °F 31.7 °F 30.2 °F 81% 29.82 in 10.0 mi SE 4.6 mph - N/A   Overcast
9:14 PM 33.8 °F 29.6 °F 30.2 °F 87% 29.82 in 10.0 mi SE 4.6 mph - N/A   Overcast
9:34 PM 33.8 °F 28.6 °F 30.2 °F 87% 29.81 in 10.0 mi SE 5.8 mph - N/A   Overcast
9:53 PM 33.8 °F 28.6 °F 30.2 °F 87% 29.81 in 10.0 mi SSE 5.8 mph - N/A   Overcast
10:13 PM 33.8 °F 27.7 °F 30.2 °F 87% 29.81 in 10.0 mi SSE 6.9 mph - N/A   Overcast
10:33 PM 33.8 °F 27.7 °F 30.2 °F 87% 29.78 in 10.0 mi SE 6.9 mph - N/A   Overcast
10:54 PM 33.8 °F 29.6 °F 30.2 °F 87% 29.79 in 10.0 mi SSE 4.6 mph - N/A   Overcast
11:13 PM 33.8 °F 29.6 °F 30.2 °F 87% 29.79 in 10.0 mi SSE 4.6 mph - N/A   Overcast
11:34 PM 33.8 °F 27.7 °F 30.2 °F 87% 29.78 in 10.0 mi SSE 6.9 mph - N/A   Overcast
11:53 PM 33.8 °F 27.0 °F 30.2 °F 87% 29.76 in 10.0 mi SE 8.1 mph - N/A   Overcast